,,,PA_Meas_PMT16A,,PR_Meas_QMR101_102,,RH_Meas_QMH101,,SR_Meas_QMS101,,TA_Meas_QMH101,,GenWind,,GenWind,
date,time,status,PA,status,PR,status,RH,status,SR,status,TA,status,DirAvg,status,SpdAvg,
2011-07-25, 00:00:04,VALID,1004.58,VALID,0,INVALID,163.899,VALID,0,VALID,22.2051,VALID,3,VALID,0,
2011-07-25, 00:01:04,VALID,1004.56,VALID,0,INVALID,163.914,VALID,0,VALID,22.2034,VALID,3,VALID,0,
2011-07-25, 00:02:04,VALID,1004.55,VALID,0,INVALID,163.868,VALID,0,VALID,22.1645,VALID,3,VALID,0,
2011-07-25, 00:03:04,VALID,1004.57,VALID,0,INVALID,163.891,VALID,0,VALID,22.1857,VALID,3,VALID,0,
2011-07-25, 00:04:04,VALID,1004.58,VALID,0,INVALID,163.876,VALID,0,VALID,22.1662,VALID,3,VALID,0,
2011-07-25, 00:05:04,VALID,1004.55,VALID,0,INVALID,163.914,VALID,0,VALID,22.1256,VALID,3,VALID,0,
2011-07-25, 00:06:04,VALID,1004.55,VALID,0,INVALID,163.876,VALID,0,VALID,22.0867,VALID,3,VALID,0,
2011-07-25, 00:07:04,VALID,1004.55,VALID,0,INVALID,163.899,VALID,0,VALID,22.0461,VALID,3,VALID,0,
2011-07-25, 00:08:04,VALID,1004.55,VALID,0,INVALID,163.899,VALID,0,VALID,22.0283,VALID,3,VALID,0,
2011-07-25, 00:09:04,VALID,1004.53,VALID,0,INVALID,163.861,VALID,0,VALID,22.0283,VALID,3,VALID,0,
2011-07-25, 00:10:04,VALID,1004.56,VALID,0,INVALID,163.952,VALID,0,VALID,22.0478,VALID,3,VALID,0,
2011-07-25, 00:11:04,VALID,1004.52,VALID,0,INVALID,163.952,VALID,0,VALID,22.1078,VALID,3,VALID,0,
2011-07-25, 00:12:04,VALID,1004.54,VALID,0,INVALID,163.891,VALID,0,VALID,22.1451,VALID,3,VALID,0,
2011-07-25, 00:13:04,VALID,1004.52,VALID,0,INVALID,163.861,VALID,0,VALID,22.1256,VALID,3,VALID,0,
2011-07-25, 00:14:04,VALID,1004.5,VALID,0,INVALID,163.952,VALID,0,VALID,22.1256,VALID,3,VALID,0,
2011-07-25, 00:15:04,VALID,1004.51,VALID,0,INVALID,163.884,VALID,0,VALID,22.0867,VALID,3,VALID,0,
2011-07-25, 00:16:04,VALID,1004.47,VALID,0,INVALID,163.884,VALID,0,VALID,22.184,VALID,3,VALID,0,
2011-07-25, 00:17:04,VALID,1004.47,VALID,0,INVALID,163.868,VALID,0,VALID,22.244,VALID,3,VALID,0,
2011-07-25, 00:18:04,VALID,1004.48,VALID,0,INVALID,163.96,VALID,0,VALID,22.1823,VALID,3,VALID,0,
2011-07-25, 00:19:04,VALID,1004.45,VALID,0,INVALID,163.876,VALID,0,VALID,22.1645,VALID,3,VALID,0,
2011-07-25, 00:20:04,VALID,1004.45,VALID,0,INVALID,163.937,VALID,0,VALID,22.1273,VALID,3,VALID,0,
2011-07-25, 00:21:04,VALID,1004.44,VALID,0,INVALID,163.884,VALID,0,VALID,22.0656,VALID,3,VALID,0,
2011-07-25, 00:22:04,VALID,1004.44,VALID,0,INVALID,163.884,VALID,0,VALID,22.0478,VALID,3,VALID,0,
2011-07-25, 00:23:04,VALID,1004.44,VALID,0,INVALID,163.876,VALID,0,VALID,22.0072,VALID,3,VALID,0,
2011-07-25, 00:24:04,VALID,1004.43,VALID,0,INVALID,163.868,VALID,0,VALID,21.9683,VALID,3,VALID,0,
2011-07-25, 00:25:04,VALID,1004.45,VALID,0,INVALID,163.899,VALID,0,VALID,21.9294,VALID,3,VALID,0,
2011-07-25, 00:26:04,VALID,1004.43,VALID,0,INVALID,163.952,VALID,0,VALID,21.9311,VALID,3,VALID,0,
2011-07-25, 00:27:04,VALID,1004.43,VALID,0,INVALID,163.876,VALID,0,VALID,22.0089,VALID,13,VALID,0,
2011-07-25, 00:28:04,VALID,1004.41,VALID,0,INVALID,163.876,VALID,0,VALID,22.0267,VALID,13,VALID,0,
2011-07-25, 00:29:04,VALID,1004.4,VALID,0,INVALID,163.899,VALID,0,VALID,22.0672,VALID,13,VALID,0,
2011-07-25, 00:30:04,VALID,1004.41,VALID,0,INVALID,163.884,VALID,0,VALID,22.1062,VALID,13,VALID,0,
2011-07-25, 00:31:04,VALID,1004.39,VALID,0,INVALID,163.876,VALID,0,VALID,22.0867,VALID,13,VALID,0,
2011-07-25, 00:32:04,VALID,1004.39,VALID,0,INVALID,163.884,VALID,0,VALID,22.0672,VALID,13,VALID,0,
2011-07-25, 00:33:04,VALID,1004.41,VALID,0,INVALID,163.914,VALID,0,VALID,22.0478,VALID,13,VALID,0,
2011-07-25, 00:34:04,VALID,1004.4,VALID,0,INVALID,163.96,VALID,0.100563,VALID,21.9894,VALID,13,VALID,0,
2011-07-25, 00:35:04,VALID,1004.38,VALID,0,INVALID,163.899,VALID,0,VALID,21.97,VALID,13,VALID,0,
2011-07-25, 00:36:04,VALID,1004.36,VALID,0,INVALID,163.922,VALID,0,VALID,21.8516,VALID,13,VALID,0,
2011-07-25, 00:37:04,VALID,1004.38,VALID,0,INVALID,163.929,VALID,0,VALID,21.7949,VALID,13,VALID,0,
2011-07-25, 00:38:04,VALID,1004.33,VALID,0,INVALID,163.906,VALID,0,VALID,21.756,VALID,13,VALID,0,
2011-07-25, 00:39:04,VALID,1004.31,VALID,0,INVALID,163.937,VALID,0,VALID,21.7171,VALID,13,VALID,0,
2011-07-25, 00:40:04,VALID,1004.31,VALID,0,INVALID,163.891,VALID,0,VALID,21.7155,VALID,13,VALID,0,
2011-07-25, 00:41:04,VALID,1004.29,VALID,0,INVALID,163.952,VALID,0,VALID,21.7949,VALID,13,VALID,0,
2011-07-25, 00:42:04,VALID,1004.29,VALID,0,INVALID,163.891,VALID,0,VALID,21.7949,VALID,13,VALID,0,
2011-07-25, 00:43:04,VALID,1004.28,VALID,0,INVALID,163.922,VALID,0,VALID,21.8727,VALID,13,VALID,0,
2011-07-25, 00:44:04,VALID,1004.26,VALID,0,INVALID,163.906,VALID,0,VALID,21.8727,VALID,13,VALID,0,
2011-07-25, 00:45:04,VALID,1004.27,VALID,0,INVALID,163.929,VALID,0,VALID,21.8355,VALID,13,VALID,0,
2011-07-25, 00:46:04,VALID,1004.28,VALID,0,INVALID,163.906,VALID,0,VALID,21.7755,VALID,13,VALID,0,
2011-07-25, 00:47:04,VALID,1004.3,VALID,0,INVALID,163.937,VALID,0,VALID,21.6782,VALID,13,VALID,0,
2011-07-25, 00:48:04,VALID,1004.29,VALID,0,INVALID,163.891,VALID,0,VALID,21.5793,VALID,13,VALID,0,
2011-07-25, 00:49:04,VALID,1004.3,VALID,0,INVALID,163.876,VALID,0,VALID,21.5809,VALID,13,VALID,0,
2011-07-25, 00:50:04,VALID,1004.28,VALID,0,INVALID,163.937,VALID,0,VALID,21.5988,VALID,13,VALID,0,
2011-07-25, 00:51:04,VALID,1004.28,VALID,0,INVALID,163.922,VALID,0,VALID,21.6782,VALID,13,VALID,0,
2011-07-25, 00:52:04,VALID,1004.31,VALID,0,INVALID,163.929,VALID,0,VALID,21.6782,VALID,13,VALID,0,
2011-07-25, 00:53:04,VALID,1004.3,VALID,0,INVALID,163.998,VALID,0,VALID,21.6977,VALID,13,VALID,0,
2011-07-25, 00:54:04,VALID,1004.28,VALID,0,INVALID,163.922,VALID,0,VALID,21.7155,VALID,13,VALID,0,
2011-07-25, 00:55:04,VALID,1004.25,VALID,0,INVALID,163.906,VALID,0,VALID,21.7755,VALID,13,VALID,0,
2011-07-25, 00:56:04,VALID,1004.22,VALID,0,INVALID,163.937,VALID,0,VALID,21.8338,VALID,13,VALID,0,
2011-07-25, 00:57:04,VALID,1004.26,VALID,0,INVALID,163.899,VALID,0,VALID,21.8533,VALID,13,VALID,0,
2011-07-25, 00:58:04,VALID,1004.21,VALID,0,INVALID,163.899,VALID,0,VALID,21.8727,VALID,13,VALID,0,
2011-07-25, 00:59:04,VALID,1004.22,VALID,0,INVALID,163.952,VALID,0,VALID,21.8922,VALID,13,VALID,0,
2011-07-25, 01:00:04,VALID,1004.22,VALID,0,INVALID,163.914,VALID,0,VALID,21.8711,VALID,13,VALID,0,
2011-07-25, 01:01:04,VALID,1004.19,VALID,0,INVALID,163.891,VALID,0,VALID,21.8322,VALID,13,VALID,0,
2011-07-25, 01:02:04,VALID,1004.16,VALID,0,INVALID,163.952,VALID,0,VALID,21.8338,VALID,13,VALID,0,
2011-07-25, 01:03:04,VALID,1004.17,VALID,0,INVALID,163.906,VALID,0,VALID,21.8144,VALID,13,VALID,0,
2011-07-25, 01:04:04,VALID,1004.14,VALID,0,INVALID,163.906,VALID,0,VALID,21.7738,VALID,13,VALID,0,
2011-07-25, 01:05:04,VALID,1004.13,VALID,0,INVALID,163.914,VALID,0,VALID,21.7366,VALID,13,VALID,0,
2011-07-25, 01:06:04,VALID,1004.12,VALID,0,INVALID,163.922,VALID,0,VALID,21.7577,VALID,13,VALID,0,
2011-07-25, 01:07:04,VALID,1004.08,VALID,0,INVALID,163.937,VALID,0,VALID,21.756,VALID,13,VALID,0,
2011-07-25, 01:08:04,VALID,1004.09,VALID,0,INVALID,163.914,VALID,0,VALID,21.7366,VALID,13,VALID,0,
2011-07-25, 01:09:04,VALID,1004.06,VALID,0,INVALID,163.968,VALID,0,VALID,21.7155,VALID,13,VALID,0,
2011-07-25, 01:10:04,VALID,1004.09,VALID,0,INVALID,163.945,VALID,0,VALID,21.756,VALID,13,VALID,0,
2011-07-25, 01:11:04,VALID,1004.07,VALID,0,INVALID,163.952,VALID,0,VALID,21.756,VALID,13,VALID,0,
2011-07-25, 01:12:04,VALID,1004.04,VALID,0,INVALID,163.975,VALID,0,VALID,21.7949,VALID,13,VALID,0,
2011-07-25, 01:13:04,VALID,1004.02,VALID,0,INVALID,163.922,VALID,0.100563,VALID,21.7738,VALID,13,VALID,0,
2011-07-25, 01:14:04,VALID,1004.02,VALID,0,INVALID,163.96,VALID,0,VALID,21.7171,VALID,13,VALID,0,
2011-07-25, 01:15:04,VALID,1004.02,VALID,0,INVALID,163.929,VALID,0,VALID,21.6977,VALID,13,VALID,0,
2011-07-25, 01:16:04,VALID,1003.97,VALID,0,INVALID,163.914,VALID,0,VALID,21.6393,VALID,13,VALID,0,
2011-07-25, 01:17:04,VALID,1003.96,VALID,0,INVALID,163.914,VALID,0,VALID,21.6198,VALID,13,VALID,0,
2011-07-25, 01:18:04,VALID,1003.96,VALID,0,INVALID,163.914,VALID,0,VALID,21.6604,VALID,13,VALID,0,
2011-07-25, 01:19:04,VALID,1003.96,VALID,0,INVALID,163.998,VALID,0,VALID,21.6588,VALID,13,VALID,0,
2011-07-25, 01:20:04,VALID,1003.95,VALID,0,INVALID,163.899,VALID,0,VALID,21.6588,VALID,13,VALID,0,
2011-07-25, 01:21:04,VALID,1003.94,VALID,0,INVALID,163.914,VALID,0,VALID,21.6977,VALID,13,VALID,0,
2011-07-25, 01:22:04,VALID,1003.91,VALID,0,INVALID,163.906,VALID,0,VALID,21.6977,VALID,13,VALID,0,
2011-07-25, 01:23:04,VALID,1003.92,VALID,0,INVALID,163.937,VALID,0,VALID,21.7577,VALID,13,VALID,0,
2011-07-25, 01:24:04,VALID,1003.89,VALID,0,INVALID,163.975,VALID,0,VALID,21.7366,VALID,13,VALID,0,
2011-07-25, 01:25:04,VALID,1003.89,VALID,0,INVALID,163.937,VALID,0,VALID,21.7755,VALID,13,VALID,0,
2011-07-25, 01:26:04,VALID,1003.9,VALID,0,INVALID,163.937,VALID,0,VALID,21.8144,VALID,10,VALID,0,
2011-07-25, 01:27:04,VALID,1003.87,VALID,0,INVALID,163.906,VALID,0,VALID,21.8533,VALID,10,VALID,0,
2011-07-25, 01:28:04,VALID,1003.86,VALID,0,INVALID,163.914,VALID,0,VALID,21.8338,VALID,10,VALID,0,
2011-07-25, 01:29:04,VALID,1003.82,VALID,0,INVALID,163.906,VALID,0,VALID,21.8338,VALID,10,VALID,0,
2011-07-25, 01:30:04,VALID,1003.83,VALID,0,INVALID,163.914,VALID,0,VALID,21.8144,VALID,10,VALID,0,
2011-07-25, 01:31:04,VALID,1003.79,VALID,0,INVALID,163.899,VALID,0,VALID,21.7949,VALID,10,VALID,0,
2011-07-25, 01:32:04,VALID,1003.76,VALID,0,INVALID,163.906,VALID,0,VALID,21.7949,VALID,10,VALID,0,
2011-07-25, 01:33:04,VALID,1003.75,VALID,0,INVALID,163.914,VALID,0,VALID,21.7755,VALID,10,VALID,0,
2011-07-25, 01:34:04,VALID,1003.75,VALID,0,INVALID,163.914,VALID,0,VALID,21.7366,VALID,10,VALID,0,
2011-07-25, 01:35:04,VALID,1003.76,VALID,0,INVALID,163.906,VALID,0,VALID,21.7366,VALID,10,VALID,0,
2011-07-25, 01:36:04,VALID,1003.73,VALID,0,INVALID,163.929,VALID,0,VALID,21.756,VALID,10,VALID,0,
2011-07-25, 01:37:04,VALID,1003.71,VALID,0,INVALID,163.914,VALID,0,VALID,21.7366,VALID,10,VALID,0,
2011-07-25, 01:38:04,VALID,1003.74,VALID,0,INVALID,163.929,VALID,0,VALID,21.756,VALID,10,VALID,0,
2011-07-25, 01:39:04,VALID,1003.71,VALID,0,INVALID,163.899,VALID,0,VALID,21.7155,VALID,10,VALID,0,
2011-07-25, 01:40:04,VALID,1003.71,VALID,0,INVALID,163.906,VALID,0,VALID,21.6782,VALID,10,VALID,0,
2011-07-25, 01:41:04,VALID,1003.73,VALID,0,INVALID,163.975,VALID,0,VALID,21.6182,VALID,10,VALID,0,
2011-07-25, 01:42:04,VALID,1003.69,VALID,0,INVALID,163.929,VALID,0,VALID,21.5615,VALID,10,VALID,0,
2011-07-25, 01:43:04,VALID,1003.73,VALID,0,INVALID,163.937,VALID,0,VALID,21.5031,VALID,10,VALID,0,
2011-07-25, 01:44:04,VALID,1003.69,VALID,0,INVALID,163.937,VALID,0,VALID,21.5615,VALID,10,VALID,0,
2011-07-25, 01:45:04,VALID,1003.67,VALID,0,INVALID,163.922,VALID,0,VALID,21.5793,VALID,10,VALID,0,
2011-07-25, 01:46:04,VALID,1003.68,VALID,0,INVALID,163.906,VALID,0,VALID,21.5599,VALID,10,VALID,0,
2011-07-25, 01:47:04,VALID,1003.65,VALID,0,INVALID,163.922,VALID,0,VALID,21.5599,VALID,10,VALID,0,
2011-07-25, 01:48:04,VALID,1003.6,VALID,0,INVALID,163.899,VALID,0,VALID,21.5809,VALID,10,VALID,0,
2011-07-25, 01:49:04,VALID,1003.6,VALID,0,INVALID,163.922,VALID,0,VALID,21.5809,VALID,10,VALID,0,
2011-07-25, 01:50:04,VALID,1003.59,VALID,0,INVALID,163.952,VALID,0,VALID,21.5793,VALID,10,VALID,0,
2011-07-25, 01:51:04,VALID,1003.55,VALID,0,INVALID,163.922,VALID,0,VALID,21.6004,VALID,10,VALID,0,
2011-07-25, 01:52:04,VALID,1003.53,VALID,0,INVALID,163.899,VALID,0,VALID,21.6198,VALID,10,VALID,0,
2011-07-25, 01:53:04,VALID,1003.51,VALID,0,INVALID,163.922,VALID,0,VALID,21.6393,VALID,10,VALID,0,
2011-07-25, 01:54:04,VALID,1003.5,VALID,0,INVALID,163.937,VALID,0,VALID,21.6782,VALID,10,VALID,0,
2011-07-25, 01:55:04,VALID,1003.48,VALID,0,INVALID,163.914,VALID,0,VALID,21.6588,VALID,10,VALID,0,
2011-07-25, 01:56:04,VALID,1003.48,VALID,0,INVALID,163.922,VALID,0,VALID,21.6393,VALID,10,VALID,0,
2011-07-25, 01:57:04,VALID,1003.48,VALID,0,INVALID,163.899,VALID,0,VALID,21.6198,VALID,10,VALID,0,
2011-07-25, 01:58:04,VALID,1003.46,VALID,0,INVALID,163.914,VALID,0,VALID,21.5988,VALID,10,VALID,0,
2011-07-25, 01:59:04,VALID,1003.42,VALID,0,INVALID,163.945,VALID,0,VALID,21.6198,VALID,14,VALID,0,
2011-07-25, 02:00:04,VALID,1003.41,VALID,0,INVALID,163.906,VALID,0,VALID,21.5599,VALID,14,VALID,0,
2011-07-25, 02:01:04,VALID,1003.38,VALID,0,INVALID,163.952,VALID,0,VALID,21.5615,VALID,14,VALID,0,
2011-07-25, 02:02:04,VALID,1003.37,VALID,0,INVALID,163.914,VALID,0,VALID,21.542,VALID,14,VALID,0,
2011-07-25, 02:03:04,VALID,1003.38,VALID,0,INVALID,163.937,VALID,0,VALID,21.5599,VALID,14,VALID,0,
2011-07-25, 02:04:04,VALID,1003.4,VALID,0,INVALID,163.952,VALID,0,VALID,21.6004,VALID,14,VALID,0,
2011-07-25, 02:05:04,VALID,1003.38,VALID,0,INVALID,163.929,VALID,0,VALID,21.6393,VALID,14,VALID,0,
2011-07-25, 02:06:04,VALID,1003.38,VALID,0,INVALID,163.929,VALID,0,VALID,21.696,VALID,14,VALID,0,
2011-07-25, 02:07:04,VALID,1003.35,VALID,0,INVALID,163.922,VALID,0,VALID,21.756,VALID,14,VALID,0,
2011-07-25, 02:08:04,VALID,1003.34,VALID,0,INVALID,163.906,VALID,0.100563,VALID,21.7349,VALID,14,VALID,0,
2011-07-25, 02:09:04,VALID,1003.34,VALID,0,INVALID,163.929,VALID,0,VALID,21.7349,VALID,14,VALID,0,
2011-07-25, 02:10:04,VALID,1003.35,VALID,0,INVALID,164.006,VALID,0,VALID,21.7949,VALID,14,VALID,0,
2011-07-25, 02:11:04,VALID,1003.33,VALID,0,INVALID,163.937,VALID,0,VALID,21.7933,VALID,14,VALID,0,
2011-07-25, 02:12:04,VALID,1003.3,VALID,0,INVALID,163.899,VALID,0,VALID,21.8144,VALID,14,VALID,0,
2011-07-25, 02:13:04,VALID,1003.29,VALID,0,INVALID,163.937,VALID,0,VALID,21.8127,VALID,14,VALID,0,
2011-07-25, 02:14:04,VALID,1003.25,VALID,0,INVALID,163.914,VALID,0.100563,VALID,21.8338,VALID,14,VALID,0,
2011-07-25, 02:15:04,VALID,1003.22,VALID,0,INVALID,163.906,VALID,0,VALID,21.8533,VALID,14,VALID,0,
2011-07-25, 02:16:04,VALID,1003.21,VALID,0,INVALID,163.899,VALID,0.100563,VALID,21.8516,VALID,14,VALID,0,
2011-07-25, 02:17:04,VALID,1003.18,VALID,0,INVALID,163.914,VALID,0,VALID,21.8338,VALID,14,VALID,0,
2011-07-25, 02:18:04,VALID,1003.17,VALID,0,INVALID,163.929,VALID,0.100563,VALID,21.8549,VALID,14,VALID,0,
2011-07-25, 02:19:04,VALID,1003.18,VALID,0,INVALID,163.899,VALID,0,VALID,21.8144,VALID,14,VALID,0,
2011-07-25, 02:20:04,VALID,1003.18,VALID,0,INVALID,163.914,VALID,0,VALID,21.7544,VALID,14,VALID,0,
2011-07-25, 02:21:04,VALID,1003.17,VALID,0,INVALID,163.937,VALID,0.100563,VALID,21.8144,VALID,14,VALID,0,
2011-07-25, 02:22:04,VALID,1003.17,VALID,0,INVALID,163.922,VALID,0,VALID,21.8144,VALID,14,VALID,0,
2011-07-25, 02:23:04,VALID,1003.15,VALID,0,INVALID,163.922,VALID,0,VALID,21.8144,VALID,14,VALID,0,
2011-07-25, 02:24:04,VALID,1003.15,VALID,0,INVALID,163.937,VALID,0,VALID,21.7933,VALID,14,VALID,0,
2011-07-25, 02:25:04,VALID,1003.15,VALID,0,INVALID,163.906,VALID,0,VALID,21.7949,VALID,14,VALID,0,
2011-07-25, 02:26:04,VALID,1003.15,VALID,0,INVALID,163.906,VALID,0.100563,VALID,21.756,VALID,14,VALID,0,
2011-07-25, 02:27:04,VALID,1003.13,VALID,0,INVALID,163.945,VALID,0,VALID,21.7755,VALID,14,VALID,0,
2011-07-25, 02:28:04,VALID,1003.14,VALID,0,INVALID,163.899,VALID,0.100563,VALID,21.8305,VALID,14,VALID,0,
2011-07-25, 02:29:04,VALID,1003.13,VALID,0,INVALID,163.922,VALID,0.100563,VALID,21.91,VALID,14,VALID,0,
2011-07-25, 02:30:04,VALID,1003.1,VALID,0,INVALID,163.891,VALID,0,VALID,21.9894,VALID,14,VALID,0,
2011-07-25, 02:31:04,VALID,1003.11,VALID,0,INVALID,163.914,VALID,0,VALID,21.9505,VALID,14,VALID,0,
2011-07-25, 02:32:04,VALID,1003.08,VALID,0,INVALID,163.899,VALID,0,VALID,21.9311,VALID,14,VALID,0,
2011-07-25, 02:33:04,VALID,1003.08,VALID,0,INVALID,163.884,VALID,0,VALID,21.91,VALID,14,VALID,0,
2011-07-25, 02:34:04,VALID,1003.09,VALID,0,INVALID,163.899,VALID,0,VALID,21.8533,VALID,14,VALID,0,
2011-07-25, 02:35:04,VALID,1003.04,VALID,0,INVALID,163.914,VALID,0.100563,VALID,21.7949,VALID,14,VALID,0,
2011-07-25, 02:36:04,VALID,1003.06,VALID,0,INVALID,163.914,VALID,0.100563,VALID,21.6571,VALID,14,VALID,0,
2011-07-25, 02:37:04,VALID,1003.05,VALID,0,INVALID,163.922,VALID,0,VALID,21.6182,VALID,14,VALID,0,
2011-07-25, 02:38:04,VALID,1003.05,VALID,0,INVALID,163.983,VALID,0,VALID,21.6004,VALID,14,VALID,0,
2011-07-25, 02:39:04,VALID,1003.05,VALID,0,INVALID,163.922,VALID,0,VALID,21.5615,VALID,14,VALID,0,
2011-07-25, 02:40:04,VALID,1003.05,VALID,0,INVALID,163.937,VALID,0,VALID,21.5615,VALID,14,VALID,0,
2011-07-25, 02:41:04,VALID,1003.07,VALID,0,INVALID,163.922,VALID,0,VALID,21.6198,VALID,14,VALID,0,
2011-07-25, 02:42:04,VALID,1003.05,VALID,0,INVALID,163.914,VALID,0.100563,VALID,21.6798,VALID,14,VALID,0,
2011-07-25, 02:43:04,VALID,1003.06,VALID,0,INVALID,163.929,VALID,0,VALID,21.6782,VALID,14,VALID,0,
2011-07-25, 02:44:04,VALID,1003.07,VALID,0,INVALID,163.891,VALID,0,VALID,21.7171,VALID,14,VALID,0,
2011-07-25, 02:45:04,VALID,1003.04,VALID,0,INVALID,163.906,VALID,0,VALID,21.6977,VALID,14,VALID,0,
2011-07-25, 02:46:04,VALID,1003.07,VALID,0,INVALID,163.937,VALID,0,VALID,21.6766,VALID,14,VALID,0,
2011-07-25, 02:47:04,VALID,1003.05,VALID,0,INVALID,163.922,VALID,0,VALID,21.7366,VALID,14,VALID,0,
2011-07-25, 02:48:04,VALID,1003.08,VALID,0,INVALID,163.96,VALID,0,VALID,21.7349,VALID,14,VALID,0,
2011-07-25, 02:49:04,VALID,1003.07,VALID,0,INVALID,163.922,VALID,0.100563,VALID,21.7949,VALID,14,VALID,0,
2011-07-25, 02:50:04,VALID,1003.04,VALID,0,INVALID,163.906,VALID,0,VALID,21.8727,VALID,14,VALID,0,
2011-07-25, 02:51:04,VALID,1003.04,VALID,0,INVALID,163.922,VALID,0,VALID,21.9116,VALID,14,VALID,0,
2011-07-25, 02:52:04,VALID,1003.03,VALID,0,INVALID,163.891,VALID,0,VALID,21.8905,VALID,14,VALID,0,
2011-07-25, 02:53:04,VALID,1003.02,VALID,0,INVALID,163.914,VALID,0,VALID,21.9489,VALID,14,VALID,0,
2011-07-25, 02:54:04,VALID,1003.03,VALID,0,INVALID,163.906,VALID,0,VALID,21.97,VALID,14,VALID,0,
2011-07-25, 02:55:04,VALID,1003.03,VALID,0,INVALID,163.868,VALID,0,VALID,21.9311,VALID,14,VALID,0,
2011-07-25, 02:56:04,VALID,1003.02,VALID,0,INVALID,163.922,VALID,0.100563,VALID,21.9489,VALID,14,VALID,0,
2011-07-25, 02:57:04,VALID,1003.04,VALID,0,INVALID,163.884,VALID,0,VALID,21.9683,VALID,14,VALID,0,
2011-07-25, 02:58:04,VALID,1003.04,VALID,0,INVALID,163.899,VALID,0.100563,VALID,21.9683,VALID,14,VALID,0,
2011-07-25, 02:59:04,VALID,1003.05,VALID,0,INVALID,163.891,VALID,0,VALID,21.97,VALID,14,VALID,0,
2011-07-25, 03:00:04,VALID,1003.04,VALID,0,INVALID,163.929,VALID,0,VALID,21.8727,VALID,14,VALID,0,
2011-07-25, 03:01:04,VALID,1003.03,VALID,0,INVALID,163.914,VALID,0,VALID,21.8338,VALID,14,VALID,0,
2011-07-25, 03:02:04,VALID,1003.03,VALID,0,INVALID,163.922,VALID,0,VALID,21.8338,VALID,14,VALID,0,
2011-07-25, 03:03:04,VALID,1003.04,VALID,0,INVALID,163.884,VALID,0,VALID,21.8938,VALID,14,VALID,0,
2011-07-25, 03:04:04,VALID,1003.05,VALID,0,INVALID,163.906,VALID,0,VALID,21.9327,VALID,14,VALID,0,
2011-07-25, 03:05:04,VALID,1003.03,VALID,0,INVALID,163.861,VALID,0,VALID,21.9327,VALID,14,VALID,0,
2011-07-25, 03:06:04,VALID,1003.06,VALID,0,INVALID,163.891,VALID,0,VALID,21.9505,VALID,14,VALID,0,
2011-07-25, 03:07:04,VALID,1003.03,VALID,0,INVALID,163.922,VALID,0,VALID,21.9116,VALID,14,VALID,0,
2011-07-25, 03:08:04,VALID,1003.07,VALID,0,INVALID,163.884,VALID,0,VALID,21.9716,VALID,14,VALID,0,
2011-07-25, 03:09:04,VALID,1003.04,VALID,0,INVALID,163.899,VALID,0,VALID,22.03,VALID,14,VALID,0,
2011-07-25, 03:10:04,VALID,1003.09,VALID,0,INVALID,163.868,VALID,0,VALID,21.97,VALID,14,VALID,0,
2011-07-25, 03:11:04,VALID,1003.06,VALID,0,INVALID,163.868,VALID,0,VALID,21.9311,VALID,14,VALID,0,
2011-07-25, 03:12:04,VALID,1003.06,VALID,0,INVALID,163.906,VALID,0,VALID,21.9716,VALID,14,VALID,0,
2011-07-25, 03:13:04,VALID,1003.07,VALID,0,INVALID,163.899,VALID,0,VALID,21.9894,VALID,10,VALID,0,
2011-07-25, 03:14:04,VALID,1003.07,VALID,0,INVALID,163.899,VALID,0,VALID,22.0106,VALID,10,VALID,0,
2011-07-25, 03:15:04,VALID,1003.06,VALID,0,INVALID,163.891,VALID,0,VALID,21.9716,VALID,10,VALID,0,
2011-07-25, 03:16:04,VALID,1003.07,VALID,0,INVALID,163.868,VALID,0,VALID,21.9505,VALID,10,VALID,0,
2011-07-25, 03:17:04,VALID,1003.05,VALID,0,INVALID,163.899,VALID,0,VALID,21.9716,VALID,10,VALID,0,
2011-07-25, 03:18:04,VALID,1003.06,VALID,0,INVALID,163.906,VALID,0,VALID,21.9311,VALID,10,VALID,0,
2011-07-25, 03:19:04,VALID,1003.06,VALID,0,INVALID,163.929,VALID,0,VALID,21.9311,VALID,10,VALID,0,
2011-07-25, 03:20:04,VALID,1003.07,VALID,0,INVALID,163.899,VALID,0,VALID,21.9116,VALID,10,VALID,0,
2011-07-25, 03:21:04,VALID,1003.07,VALID,0,INVALID,163.891,VALID,0,VALID,21.9311,VALID,10,VALID,0,
2011-07-25, 03:22:04,VALID,1003.03,VALID,0,INVALID,163.884,VALID,0,VALID,21.9489,VALID,10,VALID,0,
2011-07-25, 03:23:04,VALID,1003.03,VALID,0,INVALID,163.899,VALID,0,VALID,21.97,VALID,10,VALID,0,
2011-07-25, 03:24:04,VALID,1003.07,VALID,0,INVALID,163.876,VALID,0,VALID,21.97,VALID,10,VALID,0,
2011-07-25, 03:25:04,VALID,1003,VALID,0,INVALID,163.914,VALID,0,VALID,21.9522,VALID,10,VALID,0,
2011-07-25, 03:26:04,VALID,1003,VALID,0,INVALID,163.899,VALID,0,VALID,21.9522,VALID,10,VALID,0,
2011-07-25, 03:27:04,VALID,1003.01,VALID,0,INVALID,163.899,VALID,0,VALID,21.9311,VALID,10,VALID,0,
2011-07-25, 03:28:04,VALID,1003,VALID,0,INVALID,163.914,VALID,0,VALID,21.9311,VALID,10,VALID,0,
2011-07-25, 03:29:04,VALID,1002.99,VALID,0,INVALID,163.906,VALID,0,VALID,21.9911,VALID,10,VALID,0,
2011-07-25, 03:30:04,VALID,1003.02,VALID,0,INVALID,163.914,VALID,0,VALID,22.0495,VALID,10,VALID,0,
2011-07-25, 03:31:04,VALID,1003.03,VALID,0,INVALID,163.884,VALID,0,VALID,22.1078,VALID,10,VALID,0,
2011-07-25, 03:32:04,VALID,1003.02,VALID,0,INVALID,163.899,VALID,0,VALID,22.0689,VALID,10,VALID,0,
2011-07-25, 03:33:04,VALID,1003.01,VALID,0,INVALID,163.876,VALID,0,VALID,22.0478,VALID,10,VALID,0,
2011-07-25, 03:34:04,VALID,1003.01,VALID,0,INVALID,163.906,VALID,0,VALID,22.0089,VALID,10,VALID,0,
2011-07-25, 03:35:04,VALID,1003.05,VALID,0,INVALID,163.899,VALID,0,VALID,22.0106,VALID,10,VALID,0,
2011-07-25, 03:36:04,VALID,1003.07,VALID,0,INVALID,163.891,VALID,0,VALID,21.9894,VALID,10,VALID,0,
2011-07-25, 03:37:04,VALID,1003.04,VALID,0,INVALID,163.891,VALID,0,VALID,22.0089,VALID,10,VALID,0,
2011-07-25, 03:38:04,VALID,1003.06,VALID,0,INVALID,163.899,VALID,0,VALID,22.0089,VALID,10,VALID,0,
2011-07-25, 03:39:04,VALID,1003.08,VALID,0,INVALID,163.891,VALID,0,VALID,22.0089,VALID,10,VALID,0,
2011-07-25, 03:40:04,VALID,1003.08,VALID,0,INVALID,163.899,VALID,0,VALID,21.9911,VALID,10,VALID,0,
2011-07-25, 03:41:04,VALID,1003.07,VALID,0,INVALID,163.876,VALID,0,VALID,21.9894,VALID,10,VALID,0,
2011-07-25, 03:42:04,VALID,1003.11,VALID,0,INVALID,163.861,VALID,0,VALID,21.97,VALID,10,VALID,0,
2011-07-25, 03:43:04,VALID,1003.12,VALID,0,INVALID,163.884,VALID,0,VALID,21.9894,VALID,10,VALID,0,
2011-07-25, 03:44:04,VALID,1003.14,VALID,0,INVALID,163.884,VALID,0,VALID,22.0478,VALID,10,VALID,0,
2011-07-25, 03:45:04,VALID,1003.12,VALID,0,INVALID,163.899,VALID,0,VALID,22.0867,VALID,9,VALID,0,
2011-07-25, 03:46:04,VALID,1003.16,VALID,0,INVALID,163.884,VALID,0,VALID,22.085,VALID,6,VALID,0,
2011-07-25, 03:47:04,VALID,1003.14,VALID,0,INVALID,163.891,VALID,0,VALID,22.1645,VALID,6,VALID,0,
2011-07-25, 03:48:04,VALID,1003.11,VALID,0,INVALID,163.876,VALID,0,VALID,22.184,VALID,6,VALID,0,
2011-07-25, 03:49:04,VALID,1003.12,VALID,0,INVALID,163.899,VALID,0,VALID,22.184,VALID,6,VALID,0,
2011-07-25, 03:50:04,VALID,1003.11,VALID,0,INVALID,163.891,VALID,0,VALID,22.2229,VALID,6,VALID,0,
2011-07-25, 03:51:04,VALID,1003.11,VALID,0,INVALID,163.899,VALID,0,VALID,22.244,VALID,6,VALID,0,
2011-07-25, 03:52:04,VALID,1003.11,VALID,0,INVALID,163.891,VALID,0,VALID,22.2051,VALID,6,VALID,0,
2011-07-25, 03:53:04,VALID,1003.14,VALID,0,INVALID,163.899,VALID,0,VALID,22.184,VALID,6,VALID,0,
2011-07-25, 03:54:04,VALID,1003.13,VALID,0,INVALID,163.891,VALID,0,VALID,22.2229,VALID,6,VALID,0,
2011-07-25, 03:55:04,VALID,1003.13,VALID,0,INVALID,163.853,VALID,0,VALID,22.244,VALID,6,VALID,0,
2011-07-25, 03:56:04,VALID,1003.16,VALID,0,INVALID,163.899,VALID,0,VALID,22.2423,VALID,6,VALID,0,